[[{"header":{"parameterUnit":"m.s-1","parameterCategory":1,"la1":30.2991,"la2":30.254,"lo1":-89.0895,"lo2":-89.0444,"dy":0.0017,"dx":0.0017,"nx":28,"ny":28,"refTime":"2025-04-10T21:00:00:Z","depth":0,"parameterNumber":2,"parameterNumberName":"U-component_of_WINDS"},"data":[0,0,0,0,0,0,0,0,0,0,0,0,0,0,0,0,0,0,0,0,0,0,0,0,0,0,0,0,0,0,0,0,0,0,0,0,0,0,0,0,0,0,0,0,0,0,0,0,0,0,0,0,0,0,0,0,0,0,2.4965,2.4967,0,2.5094,2.5096,2.5097,2.5114,2.5113,2.5112,2.5111,2.5245,2.525,2.5254,0,0,0,0,0,0,0,0,0,0,0,0,0,2.4736,2.4741,2.4965,2.4967,2.4968,2.5094,2.5096,2.5097,2.5115,2.5113,2.5112,2.511,2.5244,2.5249,2.5255,0,0,0,0,0,0,0,0,0,0,0,0,0,2.4848,2.4742,2.4965,2.4992,2.4996,2.5093,2.5096,2.5098,2.5115,2.5113,2.5111,2.5109,2.5242,2.5249,2.5256,2.5336,0,0,2.5277,2.528,0,0,0,0,0,0,0,0,2.4841,2.4856,2.4986,2.499,2.4995,2.5086,2.5064,2.5178,2.5115,2.507,2.5111,2.5109,2.5194,2.5205,2.5233,2.5342,2.5348,2.5278,2.5282,2.5285,2.5287,0,0,0,0,0,0,0,2.4834,2.4851,2.5016,2.4988,2.4993,2.4999,2.5012,2.5086,2.5141,2.5074,2.5075,2.509,2.5196,2.5226,2.5236,2.535,2.5278,2.5284,2.5288,2.5291,2.5532,2.5534,0,0,0,0,0,0,2.4821,2.4844,2.5012,2.502,2.4912,2.5004,2.502,2.5059,2.514,2.515,2.5091,2.509,2.5215,2.5228,2.5241,2.534,2.5285,2.5292,2.5296,2.553,2.5533,2.5535,0,0,0,0,0,0,2.4816,2.4835,2.5007,2.4933,2.4955,2.501,2.5054,2.5062,2.5092,2.5153,2.5163,2.5112,2.5214,2.5231,2.5312,2.5345,2.5295,2.5302,2.5528,2.5531,2.5534,2.5538,0,0,0,0,0,0,2.4809,2.4833,2.4864,2.4933,2.4959,2.5075,2.5056,2.5066,2.5104,2.5104,2.5175,2.5186,2.5214,2.5302,2.5319,2.5354,2.5307,2.5525,2.5529,2.5533,2.5536,2.5541,2.5546,0,0,0,0,0,2.4801,2.486,2.4865,2.4885,2.4997,2.5076,2.5091,2.5122,2.5107,2.5138,2.5178,2.5183,2.5339,2.531,2.533,2.5367,2.5523,2.5528,2.5533,2.5533,2.554,2.5546,0,0,0,0,0,0,2.4794,2.487,2.4876,2.496,2.5011,2.5079,2.5119,2.5129,2.5186,2.5184,2.5221,2.5237,2.5316,2.535,2.5316,2.5449,2.543,2.5439,2.5423,2.5431,2.5436,2.5425,2.5313,0,0,0,0,0,2.4802,2.4859,2.4923,2.4991,2.5016,2.5063,2.5099,2.5118,2.5174,2.5196,2.5241,2.5295,2.5356,2.5396,2.5456,2.5542,2.5557,2.5577,2.5583,2.5587,2.5594,2.5641,2.5651,2.5551,2.5551,2.5551,0,0,2.4819,2.4868,2.4902,2.499,2.5033,2.5091,2.5082,2.5144,2.5188,2.5206,2.5284,2.532,2.5383,2.5466,2.5505,2.5497,2.5625,2.5593,2.5596,2.5601,2.5647,2.5657,2.5665,2.5554,2.5554,2.5553,0,0,2.4881,2.4924,2.4984,2.5027,2.5091,2.5123,2.5137,2.5204,2.5228,2.5308,2.5322,2.5376,2.548,2.5524,2.5561,2.5641,2.5648,2.5659,2.5687,2.5733,2.5741,2.5748,2.5775,2.5785,2.5666,2.5666,2.5667,0,2.4894,2.4982,2.5015,2.5077,2.5115,2.5134,2.5196,2.5236,2.5317,2.5344,2.5334,2.5465,2.5509,2.5603,2.5623,2.5652,2.567,2.565,2.5737,2.5744,2.5751,2.5778,2.5788,2.5667,2.5667,2.5667,2.5667,0,2.4995,2.5057,2.5098,2.5175,2.5219,2.528,2.5323,2.5364,2.538,2.5413,2.5494,2.5548,2.5618,2.5643,2.5659,2.5739,2.5732,2.5729,2.571,2.5761,2.5787,2.5797,2.5668,2.5668,2.5668,2.5668,0,0,2.5053,2.5148,2.5162,2.5197,2.5271,2.5319,2.5383,2.5451,2.5485,2.5541,2.5595,2.5684,2.5681,2.5722,2.5745,2.5786,2.5844,2.5778,2.578,2.5787,2.5935,2.5935,2.5946,2.5851,2.5853,2.5855,2.5929,0,2.5121,2.5233,2.5265,2.536,2.5417,2.5437,2.5492,2.5543,2.5576,2.563,2.5667,2.5729,2.5722,2.5747,2.5788,2.5828,2.5874,2.5824,2.5901,2.5903,2.5882,2.5959,2.596,2.6027,2.5939,2.5941,2.5942,0,2.5215,2.5272,2.5372,2.5438,2.5464,2.5512,2.5578,2.563,2.5689,2.571,2.5756,2.5775,2.5843,2.5822,2.5916,2.5881,2.5915,2.594,2.5943,2.595,2.5924,2.5966,2.605,2.6059,2.5958,2.5957,2.5956,0,2.5245,2.5348,2.542,2.545,2.553,2.5563,2.5598,2.5656,2.5695,2.5753,2.5779,2.5845,2.588,2.5931,2.5968,2.5949,2.6058,2.604,2.6077,2.6076,2.6098,2.6095,2.6185,2.6123,2.6123,2.6123,2.6122,0,2.5317,2.5377,2.5435,2.548,2.5548,2.5585,2.5652,2.5688,2.5739,2.5792,2.5814,2.5863,2.591,2.5965,2.5995,2.6067,2.6084,2.6103,2.6109,2.61,2.6097,2.6121,2.6116,2.6125,2.6125,2.6124,2.6124,0,2.5361,2.5402,2.5483,2.5552,2.5571,2.5618,2.5677,2.5722,2.5756,2.5823,2.5841,2.5895,2.5961,2.6003,2.6089,2.6108,2.6188,2.6194,2.6167,2.617,2.6204,2.6199,2.6311,2.6327,2.6255,2.6256,2.6256,0,2.5402,2.5449,2.5523,2.556,2.5595,2.5653,2.5694,2.5733,2.5774,2.5846,2.5882,2.595,2.6006,2.6112,2.6159,2.6225,2.6231,2.6266,2.6241,2.623,2.623,2.6226,2.623,2.6269,2.627,2.627,2.6271,0,2.5472,2.549,2.5547,2.5611,2.5659,2.5712,2.5764,2.5793,2.5842,2.5887,2.5955,2.5999,2.6086,2.6153,2.6223,2.626,2.6273,2.6279,2.629,2.6279,2.6261,2.627,2.6176,2.6275,2.6275,2.6274,2.6274,2.6274,2.5515,2.5557,2.5616,2.5679,2.5723,2.5772,2.5817,2.5857,2.5914,2.5987,2.6008,2.6079,2.6138,2.6233,2.6272,2.6328,2.6324,2.6341,2.6345,2.6348,2.6348,2.6254,2.6341,2.6341,2.6341,2.6341,2.6341,0,2.5583,2.5623,2.568,2.5753,2.5803,2.5812,2.5871,2.5912,2.5974,2.6028,2.6083,2.6162,2.6227,2.628,2.6348,2.6383,2.6391,2.6399,2.6396,2.6404,2.6349,2.6331,2.6392,2.6392,2.6392,2.6392,2.6392,2.6392,2.5625,2.5697,2.5722,2.5817,2.5856,2.5925,2.5958,2.6004,2.6047,2.6133,2.6188,2.6222,2.6276,2.6348,2.6409,2.6423,2.6446,2.6453,2.6468,2.6414,2.6408,2.6403,2.6386,2.6458,2.6458,2.6518,2.6519,2.6519]},{"header":{"parameterUnit":"m.s-1","parameterCategory":1,"la1":30.2991,"la2":30.254,"lo1":-89.0895,"lo2":-89.0444,"dy":0.0017,"dx":0.0017,"nx":28,"ny":28,"refTime":"2025-04-10T21:00:00:Z","depth":0,"parameterNumber":3,"parameterNumberName":"V-component_of_WINDS"},"data":[0,0,0,0,0,0,0,0,0,0,0,0,0,0,0,0,0,0,0,0,0,0,0,0,0,0,0,0,0,0,0,0,0,0,0,0,0,0,0,0,0,0,0,0,0,0,0,0,0,0,0,0,0,0,0,0,0,0,4.5792,4.5794,0,4.6003,4.6005,4.6007,4.6049,4.6047,4.6045,4.6044,4.6248,4.6255,4.6262,0,0,0,0,0,0,0,0,0,0,0,0,0,4.5413,4.5419,4.5791,4.5794,4.5797,4.6002,4.6005,4.6008,4.6049,4.6047,4.6045,4.6043,4.6246,4.6254,4.6262,0,0,0,0,0,0,0,0,0,0,0,0,0,4.5595,4.5422,4.5791,4.5842,4.5849,4.6002,4.6005,4.6009,4.6049,4.6047,4.6045,4.6042,4.6243,4.6253,4.6263,4.6376,0,0,4.6295,4.63,0,0,0,0,0,0,0,0,4.5585,4.5609,4.5832,4.5839,4.5847,4.5997,4.5946,4.6131,4.605,4.5973,4.6044,4.6041,4.6166,4.6182,4.6227,4.6386,4.6394,4.6296,4.6302,4.6307,4.631,0,0,0,0,0,0,0,4.5572,4.56,4.5875,4.5835,4.5844,4.5851,4.5874,4.5982,4.608,4.5979,4.5983,4.6008,4.6169,4.6217,4.6232,4.6397,4.6296,4.6305,4.6311,4.6315,4.6658,4.6661,0,0,0,0,0,0,4.5552,4.559,4.5868,4.5881,4.5708,4.586,4.5886,4.5951,4.6079,4.6096,4.601,4.6009,4.62,4.622,4.6239,4.638,4.6307,4.6316,4.6322,4.6655,4.6659,4.6662,0,0,0,0,0,0,4.5544,4.5577,4.5859,4.5737,4.5773,4.5869,4.5942,4.5957,4.6004,4.6102,4.6119,4.6041,4.6199,4.6224,4.6343,4.6387,4.6321,4.6331,4.6652,4.6657,4.666,4.6662,0,0,0,0,0,0,4.5533,4.5574,4.562,4.5737,4.578,4.5963,4.5945,4.5962,4.6024,4.6025,4.6136,4.6152,4.6199,4.6327,4.6353,4.6401,4.6339,4.6648,4.6654,4.6659,4.6658,4.6665,4.6672,0,0,0,0,0,4.5519,4.5609,4.5622,4.5656,4.584,4.5965,4.5989,4.6045,4.6027,4.6073,4.6136,4.6148,4.6378,4.6338,4.6368,4.642,4.6646,4.6652,4.6659,4.6655,4.6664,4.6672,0,0,0,0,0,0,4.549,4.5626,4.5641,4.5773,4.5858,4.5972,4.6032,4.6053,4.6141,4.6138,4.62,4.6224,4.6339,4.6391,4.6344,4.6535,4.651,4.6523,4.6497,4.6507,4.6513,4.6498,4.6347,0,0,0,0,0,4.55,4.5594,4.5706,4.5811,4.5853,4.5935,4.5991,4.6028,4.6116,4.6151,4.6223,4.6305,4.6396,4.6454,4.6543,4.6665,4.6689,4.6715,4.6722,4.6727,4.6737,4.6805,4.6818,4.6683,4.6683,4.6683,0,0,4.5519,4.5605,4.566,4.5807,4.5877,4.597,4.5965,4.6063,4.6131,4.6165,4.6282,4.6337,4.6432,4.6553,4.661,4.66,4.678,4.6735,4.6739,4.6746,4.6813,4.6826,4.6837,4.6688,4.6687,4.6686,0,0,4.5603,4.5678,4.5774,4.5845,4.5953,4.6007,4.603,4.6142,4.6181,4.63,4.6328,4.6407,4.6563,4.663,4.6684,4.6793,4.6808,4.682,4.6856,4.6921,4.6932,4.6942,4.698,4.6993,4.683,4.683,4.683,0,4.5612,4.5757,4.5819,4.5918,4.5981,4.602,4.6115,4.618,4.6309,4.635,4.6338,4.6535,4.6601,4.6738,4.6765,4.6808,4.6834,4.6808,4.6926,4.6937,4.6946,4.6984,4.6998,4.6831,4.683,4.683,4.683,0,4.5763,4.5863,4.5927,4.6056,4.6126,4.6222,4.6295,4.6358,4.6388,4.6442,4.6561,4.6644,4.675,4.6785,4.6813,4.6926,4.6916,4.6915,4.6891,4.6959,4.6995,4.701,4.6832,4.6831,4.6831,4.6831,0,0,4.5834,4.5998,4.602,4.6079,4.6201,4.6277,4.6373,4.6482,4.6534,4.6621,4.6702,4.6833,4.6833,4.6894,4.693,4.6988,4.7068,4.6979,4.6982,4.6992,4.7196,4.7197,4.7213,4.7079,4.7082,4.7084,4.7188,0,4.5932,4.6111,4.617,4.6317,4.6408,4.6447,4.653,4.6612,4.6665,4.6747,4.6804,4.6896,4.6889,4.6927,4.6985,4.7046,4.711,4.7039,4.7152,4.7155,4.7127,4.7232,4.7233,4.7328,4.7203,4.7205,4.7207,0,4.607,4.6165,4.6322,4.6433,4.6474,4.6549,4.6653,4.6732,4.6824,4.6858,4.6928,4.696,4.7059,4.703,4.7165,4.7116,4.7165,4.7202,4.7207,4.7219,4.7185,4.7246,4.7359,4.7373,4.723,4.7228,4.7226,0,4.6105,4.6271,4.6388,4.6437,4.6569,4.6621,4.6677,4.6768,4.6829,4.6918,4.6958,4.7056,4.7109,4.7182,4.7238,4.7212,4.7368,4.7344,4.7397,4.7395,4.7428,4.7425,4.7549,4.7459,4.7459,4.7459,4.7459,0,4.6208,4.6303,4.6406,4.6477,4.6583,4.6648,4.675,4.6808,4.6888,4.6969,4.7006,4.7079,4.7149,4.7231,4.7274,4.738,4.7403,4.7431,4.7442,4.7428,4.7425,4.7461,4.7456,4.7463,4.7462,4.7461,4.746,0,4.6266,4.6339,4.6468,4.6584,4.6615,4.6688,4.6785,4.6854,4.6909,4.701,4.7037,4.7122,4.722,4.7284,4.7408,4.7437,4.7552,4.756,4.7522,4.7527,4.7577,4.7571,4.7729,4.7752,4.7646,4.7647,4.7648,0,4.6327,4.6401,4.6526,4.6585,4.6644,4.6737,4.6801,4.6867,4.6931,4.7042,4.7097,4.7199,4.7284,4.7439,4.7509,4.7603,4.7614,4.7663,4.7628,4.7613,4.7615,4.761,4.7617,4.7668,4.7669,4.767,4.767,0,4.6427,4.646,4.6553,4.6659,4.6736,4.6821,4.6906,4.6951,4.703,4.71,4.7204,4.727,4.7399,4.7499,4.76,4.7654,4.7674,4.7681,4.7698,4.7685,4.766,4.7674,4.7537,4.7677,4.7676,4.7676,4.7675,4.7675,4.6488,4.6556,4.6656,4.6758,4.683,4.6909,4.698,4.7045,4.7134,4.7247,4.7279,4.7387,4.7476,4.7615,4.7671,4.7753,4.7747,4.7772,4.7778,4.7783,4.7784,4.7647,4.7772,4.7772,4.7772,4.7771,4.7771,0,4.659,4.6657,4.675,4.6871,4.695,4.6968,4.7063,4.7127,4.7223,4.7306,4.7391,4.7509,4.7606,4.7684,4.7784,4.7834,4.7846,4.7858,4.7855,4.7867,4.7784,4.776,4.7847,4.7847,4.7847,4.7847,4.7847,4.7847,4.6653,4.677,4.6814,4.6965,4.703,4.714,4.7192,4.7264,4.7331,4.7464,4.7546,4.7598,4.7679,4.7785,4.7873,4.7893,4.7928,4.7938,4.7959,4.7881,4.7872,4.7864,4.7842,4.7945,4.7945,4.8035,4.8036,4.8037]}]]